Regional Weather Roundup
Issued by NWS Grand Forks, ND

Home | Current Version | Previous Version | Text Only | Print | Product List | Glossary Off
Versions: 1 2 3 4 5 6 7 8 9 10 11 12 13 14 15 16 17 18 19 20 21 22 23 24 25 26 27 28 29 30 31 32 33 34 35 36 37 38 39 40 41 42 43 44 45 46 47 48 49 50

000
ASUS43 KFGF 250610
RWRFGF
PRAIRIE TO PINES  WEATHER ROUNDUP
NATIONAL WEATHER SERVICE EASTERN NORTH DAKOTA/GRAND FORKS ND
100 AM CDT SAT OCT 25 2014

 **SATELLITE DATA USED TO AUGMENT SKY COVER AT AUTOMATED STATIONS**
 *****  WEATHER ACROSS EASTERN NORTH DAKOTA  *****

CITY           SKY/WX    TMP DP  RH WIND       PRES   REMARKS
GRAND FORKS    CLEAR     47  35  63 W8        29.92R
6HR MIN TEMP:  47; 6HR MAX TEMP:  62;

GRAND FRKS AFB CLEAR     49  35  57 NW10      29.93R
GRAND FRKS NWS   N/A     46 N/A N/A W10         N/A
DEVILS LAKE    CLEAR     46  30  53 W14       29.95R
6HR MIN TEMP:  46; 6HR MAX TEMP:  57;

FARGO          PTCLDY    46  31  55 W9        29.97R
WAHPETON ARPT  CLOUDY    54  32  43 W9        29.99R
$$

 ***** WEATHER ACROSS CENTRAL AND WESTERN NORTH DAKOTA  *****

CITY           SKY/WX    TMP DP  RH WIND       PRES   REMARKS
BISMARCK       MOCLDY    48  30  49 W9        30.07R
6HR MIN TEMP:  46; 6HR MAX TEMP:  62;

MINOT          CLEAR     44  29  55 W7        30.03R
6HR MIN TEMP:  43; 6HR MAX TEMP:  57;

JAMESTOWN      CLEAR     45  33  63 NW8       30.00R
6HR MIN TEMP:  45; 6HR MAX TEMP:  57;

MINOT AFB      CLEAR     38  30  73 W8        30.02R
GARRISON         N/A     46  30  53 W10       30.04R
WILLISTON      MOCLDY    44  26  49 W6        30.06S
6HR MIN TEMP:  39; 6HR MAX TEMP:  52;

DICKINSON      CLOUDY    46  32  58 W9        30.08S
6HR MIN TEMP:  42; 6HR MAX TEMP:  50;

HETTINGER      CLOUDY    48  32  53 CALM      30.12R
6HR MIN TEMP:  47; 6HR MAX TEMP:  54;

$$

 *****  OTHER AIRPORT OBSERVATIONS IN OUR AREA  *****

CITY           SKY/WX    TMP DP  RH WIND       PRES   REMARKS
WALHALLA       FAIR      48  32  53 W14       29.91R
GRAFTON AIRPOR FAIR      50  32  50 NW17G23   29.91R
VALLEY CITY AR FAIR      45  34  65 W10       29.99R
CANDO          FAIR      41  32  70 W12       29.98R
CAVALIER APRT  FAIR      50  32  50 NW16G26   29.90R
GWINNER        CLOUDY    55  34  44 NW15G21   30.01S
ROLLA          FAIR      48  28  46 NW20G26   29.96R
 ***** THE ABOVE OBSERVATIONS ARE NON NWS ARE NOT QUALITY
       CONTROLLED AND MAY MIS-REPORT RAIN FOR SNOW...
$$

  *****  WEATHER ACROSS NORTHERN MINNESOTA  *****

CITY           SKY/WX    TMP DP  RH WIND       PRES   REMARKS
FLAG ISLAND    CLEAR     52  36  54 W26G33    29.75R
WARROAD        CLEAR     48  36  61 W13       29.81R
ROSEAU         CLEAR     50  36  57 W15G21    29.83R
HALLOCK        CLEAR     50  32  50 W15       29.88R
THF RVR FALLS  CLEAR     48  32  53 W14       29.89S
6HR MIN TEMP:  48; 6HR MAX TEMP:  63;

BAUDETTE       CLEAR     52  32  46 W9G23     29.78R
6HR MIN TEMP:  52; 6HR MAX TEMP:  64;

WASKISH        CLEAR     52  39  62 W16G22    29.83R
CROOKSTON      CLEAR     48  36  61 NW10      29.92R
STEPHEN NDAWN    N/A     50  34  53 NW12        N/A
GREENBUSH NDAW   N/A     48  34  57 W16         N/A
$$
  *****  WEATHER ACROSS CENTRAL AND WEST MINNESOTA  *****

CITY           SKY/WX    TMP DP  RH WIND       PRES   REMARKS
FOSSTON        CLEAR     45  34  65 W8        29.92R
BEMIDJI        CLEAR     51  33  49 W13G21    29.87S
PARK RAPIDS    CLEAR     53  32  44 NW17      29.90R
6HR MIN TEMP:  53; 6HR MAX TEMP:  60;

ELBOW LAKE     FAIR      51  36  55 W9        29.97R
6HR MIN TEMP:  51; 6HR MAX TEMP:  66;

WADENA         CLEAR     54  34  47 W8        29.92S
DETROIT LAKES  CLEAR     52  32  46 NW13      29.95R
MOORHEAD       PTCLDY    54  28  37 NW9       29.97R
FERGUS FALLS   PTCLDY    54  28  37 NW13      29.98R
MORRIS MN      PTCLDY    55  37  50 NW13      29.97R
STAPLES        CLEAR     50  32  50 W9        29.91R
$$
  *****  WEATHER ELSEWHERE ACROSS MINNESOTA  *****

CITY           SKY/WX    TMP DP  RH WIND       PRES   REMARKS
DULUTH         CLEAR     56  35  45 W13       29.79R
6HR MIN TEMP:  55; 6HR MAX TEMP:  62;

INTRNTL FALLS  CLEAR     53  33  46 W20G26    29.75R
6HR MIN TEMP:  52; 6HR MAX TEMP:  64;

ELY            CLEAR     54  34  47 W7G17     29.74R
CLOQUET        CLEAR     55  34  44 W9        29.81R
WHEATON        PTCLDY    55  36  47 NW9       30.01R
BRAINERD       CLEAR     53  33  46 W8        29.90R
6HR MIN TEMP:  53; 6HR MAX TEMP:  62;

HIBBING        CLEAR     57  33  40 W14G24    29.79R
6HR MIN TEMP:  48; 6HR MAX TEMP:  62;

ALEXANDRIA     PTCLDY    56  34  43 NW14      29.95R
6HR MIN TEMP:  56; 6HR MAX TEMP:  65;

SAINT CLOUD    PTCLDY    60  37  42 NW12      29.91R
6HR MIN TEMP:  54; 6HR MAX TEMP:  64;

MINNEAPOLIS    MOCLDY    58  44  60 W8        29.90R
6HR MIN TEMP:  57; 6HR MAX TEMP:  64;

$$

  *****  WEATHER ACROSS SOUTH DAKOTA  *****

CITY           SKY/WX    TMP DP  RH WIND       PRES   REMARKS
SIOUX FALLS    PTCLDY    52  45  77 CALM      30.01S
6HR MIN TEMP:  49; 6HR MAX TEMP:  61;

BROOKINGS      NOT AVBL
WATERTOWN      MOCLDY    54  42  64 NW6       30.03R
6HR MIN TEMP:  53; 6HR MAX TEMP:  61;

HURON          MOCLDY    51  39  63 CALM      30.05R
6HR MIN TEMP:  49; 6HR MAX TEMP:  60;

SISSETON         N/A     59  33  37 NW14      30.00R
ABERDEEN       MOCLDY    57  37  47 NW10      30.05R
6HR MIN TEMP:  57; 6HR MAX TEMP:  68;

MITCHELL       MOCLDY    50  39  66 NW8       30.05R
PIERRE         MOCLDY    55  37  50 N7        30.08R
6HR MIN TEMP:  54; 6HR MAX TEMP:  65;

MOBRIDGE       CLOUDY    55  38  52 CALM      30.05F
RAPID CITY     CLEAR     45  33  63 NW10      30.14R
6HR MIN TEMP:  42; 6HR MAX TEMP:  57;

$$

  *****  SOME WEATHER IN NEARBY STATES *****

CITY           SKY/WX    TMP DP  RH WIND       PRES   REMARKS
GLASGOW MT     MOCLDY    45  29  53 CALM      30.08R
6HR MIN TEMP:  38; 6HR MAX TEMP:  54;

GREAT FALLS MT CLOUDY    47  40  76 SE5       30.06F
6HR MIN TEMP:  47; 6HR MAX TEMP:  53; 6HR PCP: TRACE;

CHEYENNE WY    CLEAR     45  26  47 W5        30.24S
6HR MIN TEMP:  45; 6HR MAX TEMP:  66;

SCOTTSBLUFF NE CLEAR     47  32  56 CALM      30.13R
6HR MIN TEMP:  46; 6HR MAX TEMP:  70;

OMAHA NE       CLEAR     51  50  96 NW7       30.01S
6HR MIN TEMP:  49; 6HR MAX TEMP:  69;

DES MOINES IA  FOG       55  53  93 CALM      29.97S VSB 1
6HR MIN TEMP:  54; 6HR MAX TEMP:  63;

DAVENPORT IA   FOG       51  50  96 W7        29.95S VSB 1/4
6HR MIN TEMP:  51; 6HR MAX TEMP:  65;

CHICAGO IL     MOCLDY    59  50  72 SW6       29.91F
6HR MIN TEMP:  56; 6HR MAX TEMP:  62;

EAU CLAIRE WI  FOG       49  48  97 SW6       29.85R VSB 1/4
6HR MIN TEMP:  48; 6HR MAX TEMP:  57;

LA CROSSE WI   PTCLDY    56  54  93 S6        29.89S FOG
6HR MIN TEMP:  56; 6HR MAX TEMP:  60;

$$

  *****  SOME NATIONAL WEATHER *****

CITY           SKY/WX    TMP DP  RH WIND       PRES   REMARKS
LA GUARDIA NY  MOCLDY    56  37  49 NW13      29.85R
6HR MIN TEMP:  56; 6HR MAX TEMP:  60;

RALEIGH NC     PTCLDY    47  44  90 CALM      29.98S
6HR MIN TEMP:  46; 6HR MAX TEMP:  56;

ATLANTA GA     CLEAR     53  44  71 NW9       30.03S
6HR MIN TEMP:  53; 6HR MAX TEMP:  65;

NEW ORLEANS LA CLEAR     64  53  67 N7        30.10S
6HR MIN TEMP:  59; 6HR MAX TEMP:  69;

OKLAHOMA CITY  CLEAR     62  59  90 S6        30.07S
6HR MIN TEMP:  62; 6HR MAX TEMP:  75;

ALBUQUERQUE NM CLEAR     60  34  37 E5        30.29S
6HR MIN TEMP:  55; 6HR MAX TEMP:  77;

SALT LAKE CITY CLEAR     62  30  29 SE14      30.08F
6HR MIN TEMP:  56; 6HR MAX TEMP:  70;

LOS ANGELES CA CLEAR     67  67 100 W7        30.00R



USA.gov is the U.S. government's official web portal to all federal, state and local government web resources and services.